Location: Lafig�re
(44.4503°N, 4.0357°E)
Time: 00:44:49
(UTC+00:00)

Tiros 1 - Pass Details

Date: 29 January 2021
Orbit: 630 x 664 km, 48.4° (Epoch: 06 March)

Event Time Altitude Azimuth Distance (km) Brightness Sun altitude
Rises 18:20:51 0° 277° (W) 2,933 12.0 -16.5°
Reaches altitude 10° 18:23:14 10° 283° (WNW) 2,020 10.8 -16.9°
Maximum altitude 18:27:46 51° 360° (N) 795 7.5 -17.7°
Enters shadow 18:29:27 33° 56° (NE) 1,054 7.8 -18.0°
